Regional Weather Roundup
Issued by NWS

Home | Current Version | Previous Version | Text Only | Print | Product List | Glossary Off
Versions: 1 2 3 4 5 6 7 8 9 10 11 12 13 14 15 16 17 18 19 20 21 22 23 24 25 26 27

000
ASUS45 KBOI 221610
RWRID

IDAHO REGIONAL WEATHER ROUNDUP
NATIONAL WEATHER SERVICE BOISE ID
1000 AM MDT FRI SEP 22 2017

NOTE: "FAIR" INDICATES FEW OR NO CLOUDS BELOW 12000 FEET
WITH NO SIGNIFICANT WEATHER AND/OR OBSTRUCTIONS TO VISIBILITY

IDZ012-014-221700-
SOUTHWEST IDAHO


CITY           SKY/WX    TMP DP  RH WIND       PRES   REMARKS
BOISE          LGT RAIN  43  41  93 W6        29.93  FOG
CALDWELL       LGT RAIN  45  42  89 SW9       29.93S
MOUNTAIN HOME  FAIR      47  42  84 NW15      29.93R
$$

IDZ016-017-221700-
SOUTHCENTRAL IDAHO


CITY           SKY/WX    TMP DP  RH WIND       PRES   REMARKS
BURLEY         CLOUDY    42  37  82 W10       29.91R
JEROME         FAIR      40  39  97 SW12      29.92R WCI  33
TWIN FALLS     CLOUDY    41  36  82 W14       29.93
$$

IDZ019>023-221700-
SOUTHEAST IDAHO


CITY           SKY/WX    TMP DP  RH WIND       PRES   REMARKS
IDAHO FALLS    CLOUDY    41  39  93 SW14      29.90
POCATELLO      NOT AVBL
REXBURG        CLOUDY    39  38  96 SW10      29.88R WCI  32
$$

IDZ006-010-011-018-031-032-221700-
CENTRAL IDAHO MOUNTAINS


CITY           SKY/WX    TMP DP  RH WIND       PRES   REMARKS
MCCALL         CLOUDY    38  34  85 NW5       29.86R WCI  34
HAILEY         PTSUNNY   37  36  93 SE6       29.88  WCI  33
STANLEY          N/A     35  33  92 CALM      29.86R
SALMON         CLOUDY    42  38  85 CALM      29.89R
CHALLIS        CLOUDY    38  37  97 SE5       29.86R WCI  34
$$

IDZ002-004-006-007-026-221700-
NORTHERN IDAHO


CITY           SKY/WX    TMP DP  RH WIND       PRES   REMARKS
LEWISTON       FOG       41  41 100 CALM      30.01R VSB 1/4
LOWELL           N/A     45  39  79 CALM      29.99
COEUR D`ALENE  FAIR      45  40  82 NE8       30.02S
MULLAN PASS    CLOUDY    31  28  89 VRB5      29.96R WCI  26
$$




USA.gov is the U.S. government's official web portal to all federal, state and local government web resources and services.